Location: Boiro
(42.6475°N, 8.8834°W)
Time: 08:40:48
(UTC+01:00)

Vanguard 3 - Pass Details

Date: 06 December 2021
Orbit: 508 x 3260 km, 33.3° (Epoch: 24 January)

Event Time Altitude Azimuth Distance (km) Brightness Sun altitude
Rises 11:41:38 0° 278° (W) 6,559 11.5 20.5°
Reaches altitude 10° 11:48:51 10° 261° (W) 4,979 11.1 21.0°
Maximum altitude 11:55:36 16° 231° (SW) 3,878 10.9 21.5°
Drops below altitude 10° 12:00:54 10° 199° (SSW) 3,728 11.4 21.9°
Sets 12:05:03 0° 177° (S) 4,210 12.1 22.1°
